Weather History for Falfurrias, TX

Change the Weather History Date:

Thursday, May 17, 2012

  Actual Average (KNQI) Record (KNQI)
Temperature  
Mean Temperature 76 °F -  
Max Temperature 89 °F 86 °F 96 °F (2002)
Min Temperature 62 °F 68 °F 57 °F (2006)
Cooling Degree Days 10    
Growing Degree Days 26 (Base 50)    
Moisture  
Dew Point 59 °F    
Average Humidity 61    
Maximum Humidity 91    
Minimum Humidity 28    
Precipitation  
Precipitation 0.00 in - - ()
Sea Level Pressure  
Sea Level Pressure 29.98 in    
Wind  
Wind Speed 3 mph (ESE)    
Max Wind Speed 14 mph    
Max Gust Speed 17 mph    
Visibility 9 miles    
Events      
Averages and records for this station are not official NWS values.
T = Trace of Precipitation, MM = Missing Value Source: NWS Daily Summary

Daily Weather History Graph

Daily Weather History Graph

Search for Another Location

Airport:

Trip Planner

Search our weather history database for the weather conditions in past years. The results will help you decide how hot, cold, wet, or windy it might be!

Date:

Astronomy

May. 17, 2012 Rise Set
Actual Time 6:42 AM CDT 8:15 PM CDT
Civil Twilight 6:17 AM CDT 8:40 PM CDT
Nautical Twilight 5:47 AM CDT 9:11 PM CDT
Astronomical Twilight 5:15 AM CDT 9:42 PM CDT
Moon 4:28 AM CDT (5/17) 5:39 PM CDT (5/17)
Length of Visible Light 14h 23m
Length of Day
13h 32m
Waning Crescent, 9% of the Moon is Illuminated
May 17
Waning Crescent
May 20
New
May 28
First Quarter
Jun 4
Full
Jun 11
Last Quarter

Hourly Weather History & Observations

Time (CDT) Temp. Heat Index Dew Point Humidity Pressure Visibility Wind Dir Wind Speed Gust Speed Precip Events Conditions
12:15 AM 68.9 °F - 61.7 °F 78% 30.02 in 10.0 mi Calm Calm - N/A   Clear
12:35 AM 68.0 °F - 61.5 °F 80% 30.03 in 10.0 mi SW 3.5 mph - N/A   Clear
12:55 AM 68.0 °F - 61.7 °F 80% 30.02 in 10.0 mi Calm Calm - N/A   Clear
1:15 AM 67.1 °F - 61.7 °F 83% 30.02 in 10.0 mi Calm Calm - N/A   Clear
1:35 AM 66.7 °F - 61.7 °F 84% 30.02 in 10.0 mi Calm Calm - N/A   Scattered Clouds
2:15 AM 65.8 °F - 61.7 °F 86% 30.01 in 10.0 mi Calm Calm - N/A   Scattered Clouds
2:35 AM 65.7 °F - 61.7 °F 87% 30.01 in 10.0 mi Calm Calm - N/A   Scattered Clouds
2:55 AM 64.8 °F - 61.2 °F 88% 30.01 in 10.0 mi Calm Calm - N/A   Scattered Clouds
3:15 AM 64.8 °F - 61.2 °F 88% 30.01 in 10.0 mi Calm Calm - N/A   Scattered Clouds
3:35 AM 64.9 °F - 61.3 °F 88% 30.00 in 10.0 mi Calm Calm - N/A   Clear
3:55 AM 64.9 °F - 61.2 °F 88% 30.00 in 7.0 mi Calm Calm - N/A   Clear
4:15 AM 65.3 °F - 61.5 °F 88% 30.00 in 7.0 mi Calm Calm - N/A   Scattered Clouds
4:35 AM 65.3 °F - 61.7 °F 88% 30.00 in 7.0 mi Calm Calm - N/A   Scattered Clouds
4:55 AM 64.4 °F - 61.0 °F 89% 30.00 in 7.0 mi Calm Calm - N/A   Scattered Clouds
5:15 AM 64.6 °F - 61.3 °F 89% 30.00 in 7.0 mi Calm Calm - N/A   Scattered Clouds
5:35 AM 64.4 °F - 61.0 °F 89% 30.00 in 7.0 mi Calm Calm - N/A   Scattered Clouds
5:55 AM 64.0 °F - 61.0 °F 90% 30.00 in 5.0 mi Calm Calm - N/A   Scattered Clouds
6:15 AM 63.7 °F - 60.8 °F 90% 30.00 in 7.0 mi Calm Calm - N/A   Clear
6:35 AM 62.8 °F - 60.1 °F 91% 30.00 in 4.0 mi Calm Calm - N/A   Scattered Clouds
6:55 AM 62.6 °F - 59.9 °F 91% 30.01 in 4.0 mi Calm Calm - N/A   Clear
7:15 AM 63.5 °F - 60.4 °F 90% 30.01 in 5.0 mi Calm Calm - N/A   Clear
7:35 AM 64.4 °F - 61.7 °F 91% 30.02 in 4.0 mi Calm Calm - N/A   Clear
7:55 AM 65.8 °F - 63.0 °F 90% 30.03 in 4.0 mi Calm Calm - N/A   Clear
8:15 AM 67.6 °F - 63.7 °F 87% 30.03 in 5.0 mi West 3.5 mph - N/A   Clear
8:35 AM 69.8 °F - 64.2 °F 82% 30.03 in 10.0 mi West 3.5 mph - N/A   Clear
8:55 AM 71.6 °F - 64.4 °F 78% 30.04 in 10.0 mi WSW 4.6 mph - N/A   Clear
9:15 AM 73.4 °F - 64.4 °F 73% 30.04 in 10.0 mi WSW 5.8 mph - N/A   Clear
9:35 AM 74.3 °F - 64.6 °F 72% 30.04 in 10.0 mi WSW 4.6 mph - N/A   Clear
9:55 AM 76.5 °F - 63.3 °F 64% 30.04 in 10.0 mi SW 3.5 mph - N/A   Clear
10:15 AM 78.3 °F - 60.8 °F 55% 30.03 in 10.0 mi Calm Calm - N/A   Clear
10:35 AM 79.3 °F - 59.7 °F 51% 30.03 in 10.0 mi Calm Calm - N/A   Clear
10:55 AM 80.8 °F 81.1 °F 58.3 °F 46% 30.03 in 10.0 mi East 4.6 mph - N/A   Clear
11:15 AM 81.5 °F 81.5 °F 57.9 °F 44% 30.03 in 10.0 mi East 3.5 mph - N/A   Scattered Clouds
11:35 AM 82.8 °F 82.2 °F 57.0 °F 41% 30.02 in 10.0 mi ENE 6.9 mph - N/A   Scattered Clouds
11:55 AM 82.6 °F 82.0 °F 55.8 °F 40% 30.02 in 10.0 mi Calm Calm - N/A   Clear
12:15 PM 82.4 °F 81.7 °F 55.0 °F 39% 30.01 in 10.0 mi Calm Calm - N/A   Clear
12:35 PM 84.6 °F 83.2 °F 55.0 °F 36% 30.01 in 10.0 mi SSE 5.8 mph - N/A   Clear
12:55 PM 84.2 °F 82.8 °F 54.0 °F 35% 30.00 in 10.0 mi Calm Calm - N/A   Clear
1:15 PM 85.5 °F 83.8 °F 54.3 °F 34% 29.99 in 10.0 mi ESE 6.9 mph - N/A   Clear
1:35 PM 85.3 °F - 52.0 °F 32% 29.98 in 10.0 mi West 5.8 mph - N/A   Clear
1:55 PM 86.5 °F 84.6 °F 53.6 °F 32% 29.97 in 10.0 mi NE 9.2 mph - N/A   Clear
2:15 PM 87.8 °F 85.7 °F 53.6 °F 31% 29.97 in 10.0 mi East 5.8 mph - N/A   Scattered Clouds
2:35 PM 87.8 °F - 52.7 °F 30% 29.96 in 10.0 mi ESE 9.2 mph - N/A   Mostly Cloudy
2:55 PM 88.2 °F 85.9 °F 53.1 °F 30% 29.95 in 10.0 mi East 8.1 mph - N/A   Scattered Clouds
3:15 PM 89.4 °F - 52.3 °F 28% 29.94 in 10.0 mi SE 5.8 mph - N/A   Scattered Clouds
3:35 PM 88.7 °F - 52.2 °F 29% 29.93 in 10.0 mi SSE 6.9 mph - N/A   Scattered Clouds
3:55 PM 87.6 °F - 51.3 °F 29% 29.92 in 10.0 mi NNE 3.5 mph - N/A   Mostly Cloudy
4:15 PM 87.1 °F - 51.8 °F 30% 29.91 in 10.0 mi NNE 4.6 mph - N/A   Scattered Clouds
4:35 PM 88.3 °F - 51.3 °F 28% 29.91 in 10.0 mi East 8.1 mph - N/A   Scattered Clouds
4:55 PM 88.3 °F - 51.4 °F 28% 29.91 in 10.0 mi ESE 9.2 mph - N/A   Clear
5:15 PM 86.9 °F 84.9 °F 54.0 °F 32% 29.90 in 10.0 mi East 13.8 mph - N/A   Scattered Clouds
5:35 PM 88.0 °F 86.1 °F 54.7 °F 32% 29.90 in 10.0 mi ESE 10.4 mph - N/A   Clear
5:55 PM 87.6 °F 85.7 °F 54.5 °F 32% 29.90 in 10.0 mi ESE 9.2 mph - N/A   Scattered Clouds
6:35 PM 86.0 °F 84.2 °F 53.4 °F 33% 29.90 in 10.0 mi East 12.7 mph 17.3 mph N/A   Clear
6:55 PM 85.1 °F 83.5 °F 53.6 °F 34% 29.90 in 10.0 mi East 10.4 mph 17.3 mph N/A   Clear
7:15 PM 83.8 °F 82.6 °F 54.1 °F 36% 29.90 in 10.0 mi ESE 10.4 mph - N/A   Clear
7:35 PM 82.4 °F 81.8 °F 55.8 °F 40% 29.91 in 10.0 mi ESE 13.8 mph - N/A   Clear
7:55 PM 80.8 °F 80.9 °F 56.8 °F 44% 29.91 in 10.0 mi ESE 10.4 mph 16.1 mph N/A   Clear
8:15 PM 79.3 °F - 59.0 °F 50% 29.92 in 10.0 mi ESE 10.4 mph - N/A   Clear
8:35 PM 77.9 °F - 60.1 °F 54% 29.92 in 10.0 mi ESE 6.9 mph - N/A   Clear
8:55 PM 77.0 °F - 60.8 °F 57% 29.93 in 10.0 mi ESE 4.6 mph - N/A   Clear
9:15 PM 75.4 °F - 61.3 °F 62% 29.93 in 10.0 mi ESE 4.6 mph - N/A   Clear
9:35 PM 74.1 °F - 61.7 °F 65% 29.93 in 10.0 mi ESE 3.5 mph - N/A   Clear
9:55 PM 73.0 °F - 62.4 °F 69% 29.94 in 10.0 mi ESE 4.6 mph - N/A   Clear
10:15 PM 72.9 °F - 62.8 °F 71% 29.94 in 10.0 mi ESE 3.5 mph - N/A   Clear
10:35 PM 71.8 °F - 62.6 °F 73% 29.95 in 10.0 mi East 3.5 mph - N/A   Clear
10:55 PM 70.7 °F - 62.8 °F 76% 29.96 in 10.0 mi ESE 3.5 mph - N/A   Clear
11:15 PM 70.5 °F - 63.0 °F 77% 29.96 in 10.0 mi Calm Calm - N/A   Clear
11:35 PM 69.8 °F - 62.8 °F 78% 29.96 in 10.0 mi SE 3.5 mph - N/A   Clear
11:55 PM 69.4 °F - 63.0 °F 80% 29.96 in 10.0 mi SE 3.5 mph - N/A   Clear